TimeEDT,TemperatureF,Dew PointF,Humidity,Sea Level PressureIn,VisibilityMPH,Wind Direction,Wind SpeedMPH,Gust SpeedMPH,PrecipitationIn,Events,Conditions,WindDirDegrees,DateUTC
12:54 AM,57.0,54.0,89,30.19,8.0,Calm,Calm,-,N/A,,Clear,0,2012-10-05 04:54:00
1:54 AM,55.9,54.0,93,30.19,8.0,Calm,Calm,-,N/A,,Clear,0,2012-10-05 05:54:00
2:54 AM,55.0,52.0,89,30.19,8.0,Calm,Calm,-,N/A,,Clear,0,2012-10-05 06:54:00
3:54 AM,54.0,52.0,93,30.17,6.0,Calm,Calm,-,N/A,,Clear,0,2012-10-05 07:54:00
4:54 AM,52.0,51.1,97,30.16,6.0,Calm,Calm,-,N/A,,Clear,0,2012-10-05 08:54:00
5:54 AM,52.0,51.1,97,30.16,6.0,Calm,Calm,-,N/A,,Clear,0,2012-10-05 09:54:00
6:54 AM,52.0,50.0,93,30.18,6.0,Calm,Calm,-,N/A,,Clear,0,2012-10-05 10:54:00
7:54 AM,52.0,50.0,93,30.18,6.0,Calm,Calm,-,N/A,,Clear,0,2012-10-05 11:54:00
8:54 AM,55.0,53.1,93,30.18,10.0,Calm,Calm,-,N/A,,Clear,0,2012-10-05 12:54:00
9:54 AM,61.0,55.0,81,30.18,10.0,Calm,Calm,-,N/A,,Clear,0,2012-10-05 13:54:00
10:54 AM,69.1,57.0,65,30.15,10.0,South,4.6,-,N/A,,Clear,180,2012-10-05 14:54:00
11:54 AM,73.0,57.0,57,30.13,10.0,SSW,5.8,-,N/A,,Clear,210,2012-10-05 15:54:00
12:54 PM,73.9,57.0,55,30.12,10.0,WSW,5.8,-,N/A,,Scattered Clouds,250,2012-10-05 16:54:00
1:54 PM,78.1,55.9,46,30.09,10.0,WSW,9.2,-,N/A,,Scattered Clouds,240,2012-10-05 17:54:00
2:54 PM,77.0,54.0,45,30.07,10.0,West,9.2,16.1,N/A,,Scattered Clouds,260,2012-10-05 18:54:00
3:54 PM,78.1,53.1,42,30.04,10.0,Variable,4.6,-,N/A,,Scattered Clouds,0,2012-10-05 19:54:00
4:54 PM,75.9,52.0,43,30.01,10.0,WSW,6.9,-,N/A,,Scattered Clouds,240,2012-10-05 20:54:00
5:54 PM,75.9,53.1,45,30.00,10.0,SW,5.8,-,N/A,,Partly Cloudy,230,2012-10-05 21:54:00
6:54 PM,72.0,54.0,53,30.00,10.0,South,5.8,-,N/A,,Partly Cloudy,170,2012-10-05 22:54:00
7:54 PM,66.9,55.9,68,29.99,10.0,Calm,Calm,-,N/A,,Clear,0,2012-10-05 23:54:00
8:54 PM,64.0,55.9,75,29.98,10.0,Calm,Calm,-,N/A,,Clear,0,2012-10-06 00:54:00
9:54 PM,62.1,55.9,80,29.97,10.0,SE,3.5,-,N/A,,Clear,130,2012-10-06 01:54:00
10:54 PM,61.0,55.9,83,29.95,10.0,Calm,Calm,-,N/A,,Partly Cloudy,0,2012-10-06 02:54:00
11:54 PM,60.1,55.9,86,29.94,8.0,Calm,Calm,-,N/A,,Partly Cloudy,0,2012-10-06 03:54:00